Weather in Melekhino

Russia / Tyumen Oblast     56°03′01″N   68°34′35″E
temp.,
°C
wind,
m/s
gust,
m/s
humid.,
%
clouds,
%
prec.,
mm/h
press.,
hPa
HPBL,
m
13 april, tue
tue1323:00+4n34905 0.0 103645
02:00+4nw228849 0.0 103713
05:00+2n22880 0.0 103910
08:00+2wnw229858 0.0 104068
11:00+7w34752 0.0 1040267
14:00+9w456817 0.0 1040523
17:00+8wsw46730 0.0 1039333
20:00+4wsw369112 0.0 1038104
14 april, wed
wed1423:00+3sw511935 0.0 1038196
02:00+2sw5139510 0.0 1036249
05:00+2sw61595100 0.0 1035302
08:00+5wsw7158867 0.0 1033383
11:00+10wsw8137533 0.0 1031528
14:00+13w7107152 0.0 1030763
17:00+15w69715 0.0 1028856
20:00+11wsw488832 0.0 1028147
15 april, thu
thu1523:00+9w38895 0.0 1027121
02:00+8wsw47906 0.0 1026110
05:00+7w37925 0.0 1026101
08:00+10w47805 0.0 1026207
11:00+15w575922 0.0 1024679
14:00+18w674734 0.0 10221058
17:00+18wsw68595 0.0 10201156
20:00+13sw410725 0.0 1019212
16 april, fri
fri1623:00+10wsw411735 0.0 1018181
02:00+9sw4107235 0.0 1016166
05:00+7wsw4107784 0.0 1015167
08:00+10w4974100 0.0 1014254
11:00+14nw5761100 0.0 1014909
14:00+7n8983100 0.0 1016639
17:00+4nne61195100 1.3 1018740
20:00+3nne61192100 0.3 1020787
17 april, sat
sat1723:00+1ne5107611 0.4 1021636
02:00−1ne59745 0.0 1021478
05:00−2ne48703 0.0 1023492
08:00−1ne44543 0.0 1023714
11:00+2n33381 0.0 10221123
14:00+4nw3432100 0.0 10211505
17:00+5wnw453175 0.0 10191695
20:00+2wsw335099 0.0 101941